GW1238 Weather Reports


time (UTC)temp
F
wind
direction
speed
knots
gust
knots
rain 1hr
in
rain 24hr
in
rain mn
in
humidity
%
barometer
mb
20260903120107 75 330 0.9 1.7 0.00 0.00 0.00 95 1021.3
20260903115605 75 338 0.9 1.7 0.00 0.00 0.00 96 1021.2
20260903115100 74 324 1.7 2.6 0.00 0.00 0.00 96 1021.3
20260903114555 74 335 1.7 1.7 0.00 0.00 0.00 96 1020.9
20260903114051 74 340 1.7 1.7 0.00 0.00 0.00 96 1021.1
20260903113547 74 341 1.7 1.7 0.00 0.00 0.00 96 1021.0
20260903113043 74 332 1.7 1.7 0.00 0.00 0.00 96 1020.8
20260903112538 74 343 0.9 2.6 0.00 0.00 0.00 96 1021.1
20260903112033 74 336 1.7 1.7 0.00 0.00 0.00 96 1020.8
20260903111532 74 331 1.7 1.7 0.00 0.00 0.00 96 1020.7
20260903111028 74 335 1.7 1.7 0.00 0.00 0.00 96 1020.8
20260903110524 74 348 1.7 1.7 0.00 0.00 0.00 96 1020.7
20260903110024 74 338 1.7 1.7 0.00 0.00 0.00 96 1020.6
20260903105519 74 324 1.7 1.7 0.00 0.00 0.00 96 1020.6
20260903105014 74 11 0.9 1.7 0.00 0.00 0.00 96 1020.6
20260903104513 74 348 1.7 1.7 0.00 0.00 0.00 96 1020.5
20260903104009 75 338 1.7 1.7 0.00 0.00 0.00 96 1020.6
20260903103505 74 339 1.7 1.7 0.00 0.00 0.00 96 1020.6
20260903103001 74 330 1.7 1.7 0.00 0.00 0.00 96 1020.6
20260903102456 74 334 1.7 1.7 0.00 0.00 0.00 96 1020.6
20260903101954 74 338 1.7 1.7 0.00 0.00 0.00 96 1020.5
20260903101449 74 342 1.7 1.7 0.00 0.00 0.00 96 1020.4
20260903100945 74 335 1.7 1.7 0.00 0.00 0.00 96 1020.3
20260903100440 75 329 1.7 1.7 0.00 0.00 0.00 96 1020.6
20260903095937 75 332 0.9 1.7 0.00 0.00 0.00 97 1020.5
20260903095432 75 342 1.7 1.7 0.00 0.00 0.00 97 1020.5
20260903094927 75 332 0.9 1.7 0.00 0.00 0.00 96 1020.3
20260903094426 75 328 0.9 1.7 0.00 0.00 0.00 96 1020.4
20260903093924 75 335 1.7 1.7 0.00 0.00 0.00 96 1020.6
20260903093424 75 336 1.7 2.6 0.00 0.00 0.00 96 1020.6
20260903092919 75 343 0.9 1.7 0.00 0.00 0.00 95 1020.3
20260903092414 75 336 1.7 1.7 0.00 0.00 0.00 95 1020.5
20260903091913 75 337 1.7 1.7 0.00 0.00 0.00 95 1020.5
20260903091411 75 338 1.7 1.7 0.00 0.00 0.00 94 1020.3
20260903090912 75 341 1.7 1.7 0.00 0.00 0.00 94 1020.5
20260903090407 75 328 1.7 1.7 0.00 0.00 0.00 94 1020.2
20260903085906 75 331 1.7 1.7 0.00 0.00 0.00 94 1020.4
20260903085404 75 332 1.7 1.7 0.00 0.00 0.00 94 1020.3
20260903084904 75 341 1.7 1.7 0.00 0.00 0.00 94 1020.3
20260903084403 76 347 0.9 1.7 0.00 0.00 0.00 94 1020.3
20260903083858 75 334 1.7 1.7 0.00 0.00 0.00 94 1020.2
20260903083354 75 329 1.7 2.6 0.00 0.00 0.00 93 1020.4
20260903082853 75 337 1.7 1.7 0.00 0.00 0.00 93 1020.4
20260903082348 75 342 1.7 1.7 0.00 0.00 0.00 93 1020.5
20260903081843 75 333 1.7 2.6 0.00 0.00 0.00 93 1020.3
20260903081338 76 330 1.7 1.7 0.00 0.00 0.00 93 1020.2
20260903080835 76 337 1.7 2.6 0.00 0.00 0.00 93 1020.1
20260903080332 76 330 1.7 1.7 0.00 0.00 0.00 93 1020.1
20260903075831 76 335 1.7 1.7 0.00 0.00 0.00 93 1020.2
20260903075326 76 336 1.7 1.7 0.00 0.00 0.00 93 1020.4
20260903074821 76 338 1.7 1.7 0.00 0.00 0.00 92 1020.2
20260903074321 76 334 1.7 1.7 0.00 0.00 0.00 93 1020.2
20260903073817 76 324 1.7 1.7 0.00 0.00 0.00 92 1020.1
20260903073312 76 347 1.7 1.7 0.00 0.00 0.00 92 1019.9
20260903072808 76 340 1.7 1.7 0.00 0.00 0.00 92 1020.2
20260903072306 76 335 1.7 1.7 0.00 0.00 0.00 92 1020.3
20260903071801 76 337 1.7 1.7 0.00 0.00 0.00 92 1020.1
20260903071256 76 346 1.7 1.7 0.00 0.00 0.00 92 1020.1
20260903070755 76 329 1.7 1.7 0.00 0.00 0.00 91 1020.1
20260903070251 76 343 1.7 2.6 0.00 0.00 0.00 91 1020.0
20260903065746 76 337 1.7 1.7 0.00 0.00 0.00 91 1020.0
20260903065246 76 341 1.7 1.7 0.00 0.00 0.00 91 1020.1
20260903064744 76 334 1.7 1.7 0.00 0.00 0.00 91 1019.9
20260903064240 76 341 1.7 1.7 0.00 0.00 0.00 91 1020.1
20260903063737 76 343 1.7 1.7 0.00 0.00 0.00 91 1020.2
20260903063231 77 335 1.7 2.6 0.00 0.00 0.00 91 1020.3
20260903062727 76 339 1.7 1.7 0.00 0.00 0.00 91 1020.2
20260903062226 77 341 1.7 1.7 0.00 0.00 0.00 91 1020.0
20260903061723 77 340 1.7 1.7 0.00 0.00 0.00 90 1020.1
20260903061221 77 341 0.9 1.7 0.00 0.00 0.00 90 1020.2
20260903060718 77 330 1.7 1.7 0.00 0.00 0.00 90 1020.3
20260903060217 77 342 1.7 1.7 0.00 0.00 0.00 90 1020.3
20260903055715 77 348 0.9 1.7 0.00 0.00 0.00 89 1020.3
20260903055214 77 336 1.7 1.7 0.00 0.00 0.00 89 1020.3
20260903054708 77 335 1.7 1.7 0.00 0.00 0.00 89 1020.3
20260903054204 77 342 1.7 1.7 0.00 0.00 0.00 89 1020.3
20260903053701 77 337 1.7 1.7 0.00 0.00 0.00 89 1020.3
20260903053155 77 338 1.7 1.7 0.00 0.00 0.00 88 1020.2
20260903052651 78 336 1.7 2.6 0.00 0.00 0.00 89 1020.2
20260903052147 77 327 1.7 1.7 0.00 0.00 0.00 88 1020.3
20260903051641 78 345 0.9 1.7 0.00 0.00 0.00 89 1020.4
20260903051137 78 352 0.9 1.7 0.00 0.00 0.00 88 1020.5
20260903050637 78 341 1.7 1.7 0.00 0.00 0.00 88 1020.3
20260903050126 78 341 1.7 2.6 0.00 0.00 0.00 88 1020.3
20260903045625 78 341 1.7 1.7 0.00 0.00 0.00 88 1020.3
20260903045122 78 336 1.7 2.6 0.00 0.00 0.00 88 1020.2
20260903044618 78 331 1.7 2.6 0.00 0.00 0.00 88 1020.4
20260903044113 78 336 1.7 1.7 0.00 0.00 0.00 88 1020.3
20260903043609 78 341 1.7 1.7 0.00 0.00 0.00 88 1020.3
20260903043109 78 337 1.7 2.6 0.00 0.00 0.00 87 1020.3
20260903042603 78 342 1.7 1.7 0.00 0.00 0.00 87 1020.4
20260903042059 78 358 1.7 1.7 0.00 0.00 0.00 87 1020.2
20260903041556 78 343 1.7 1.7 0.00 0.00 0.00 87 1020.2
20260903041055 78 333 1.7 1.7 0.00 0.00 0.00 87 1020.3
20260903040554 78 340 1.7 1.7 0.00 0.00 0.00 86 1020.3
20260903040051 78 335 1.7 1.7 0.00 0.00 0.00 86 1020.3
20260903035546 79 345 1.7 1.7 0.00 0.00 0.00 87 1020.4
20260903035042 79 343 1.7 2.6 0.00 0.00 0.00 86 1020.5
20260903034537 79 341 1.7 1.7 0.00 0.00 0.00 86 1020.4
20260903034032 79 341 1.7 1.7 0.00 0.00 0.00 86 1020.4
20260903033527 79 337 1.7 1.7 0.00 0.00 0.00 86 1020.3
20260903033022 79 342 0.9 2.6 0.00 0.00 0.00 86 1020.4
20260903032518 79 335 0.9 1.7 0.00 0.00 0.00 86 1020.4
20260903032013 79 324 1.7 1.7 0.00 0.00 0.00 85 1020.5
20260903031513 79 330 1.7 1.7 0.00 0.00 0.00 85 1020.5
20260903031008 79 341 1.7 1.7 0.00 0.00 0.00 85 1020.6
20260903030504 80 341 1.7 1.7 0.00 0.00 0.00 85 1020.4
20260903025959 80 339 1.7 1.7 0.00 0.00 0.00 84 1020.4
20260903025455 80 335 1.7 1.7 0.00 0.00 0.00 84 1020.5
20260903024950 80 338 1.7 1.7 0.00 0.00 0.00 84 1020.2
20260903024449 80 339 1.7 1.7 0.00 0.00 0.00 84 1020.3
20260903023944 80 334 1.7 1.7 0.00 0.00 0.00 83 1020.1
20260903023439 80 355 0.9 1.7 0.00 0.00 0.00 83 1020.2
20260903022935 80 336 1.7 1.7 0.00 0.00 0.00 83 1020.3
20260903022434 81 340 1.7 1.7 0.00 0.00 0.00 83 1020.2
20260903021932 80 346 1.7 2.6 0.00 0.00 0.00 82 1020.2
20260903021428 81 341 1.7 1.7 0.00 0.00 0.00 82 1020.2
20260903020922 81 338 0.9 2.6 0.00 0.00 0.00 82 1020.3
20260903020418 81 333 0.9 1.7 0.00 0.00 0.00 81 1020.2
20260903015912 81 340 1.7 1.7 0.00 0.00 0.00 80 1020.2
20260903015408 82 349 0.9 1.7 0.00 0.00 0.00 81 1020.2
20260903014903 82 345 1.7 1.7 0.00 0.00 0.00 80 1020.1
20260903014357 82 336 1.7 1.7 0.00 0.00 0.00 80 1020.3
20260903013853 82 343 1.7 1.7 0.00 0.00 0.00 80 1020.1
20260903013352 82 331 1.7 1.7 0.00 0.00 0.00 80 1020.0
20260903012851 82 341 1.7 1.7 0.00 0.00 0.00 80 1020.0
20260903012345 82 342 0.9 1.7 0.00 0.00 0.00 80 1020.0
20260903011844 82 332 0.9 1.7 0.00 0.00 0.00 79 1019.9
20260903011344 82 336 1.7 1.7 0.00 0.00 0.00 79 1019.7
20260903010839 83 343 1.7 1.7 0.00 0.00 0.00 78 1019.6
20260903010335 83 338 1.7 1.7 0.00 0.00 0.00 78 1019.5
20260903005833 83 340 1.7 1.7 0.00 0.00 0.00 77 1019.7
20260903005328 83 343 0.9 1.7 0.00 0.00 0.00 77 1019.6
20260903004824 83 347 1.7 2.6 0.00 0.00 0.00 77 1019.6
20260903004319 84 334 1.7 2.6 0.00 0.00 0.00 77 1019.5
20260903003815 84 337 1.7 1.7 0.00 0.00 0.00 76 1019.4
20260903003310 84 338 1.7 2.6 0.00 0.00 0.00 76 1019.5
20260903002809 84 336 1.7 1.7 0.00 0.00 0.00 75 1019.4
20260903002309 85 348 0.9 2.6 0.00 0.00 0.00 74 1019.5
20260903001804 85 339 1.7 1.7 0.00 0.00 0.00 75 1019.3
20260903001259 85 344 1.7 1.7 0.00 0.00 0.00 75 1019.3
20260903000754 86 346 0.9 1.7 0.00 0.00 0.00 75 1019.4
20260903000249 86 339 1.7 2.6 0.00 0.00 0.00 73 1019.3
20260902235747 86 341 1.7 1.7 0.00 0.00 0.00 73 1019.4
20260902235243 87 338 1.7 1.7 0.00 0.00 0.00 72 1019.3
20260902234742 87 341 1.7 1.7 0.00 0.00 0.00 72 1019.3
20260902234242 87 344 0.9 1.7 0.00 0.00 0.00 71 1019.3
20260902233742 88 344 0.9 1.7 0.00 0.00 0.00 71 1019.4
20260902233242 88 341 0.9 1.7 0.00 0.00 0.00 70 1019.4
20260902232740 89 339 0.9 1.7 0.00 0.00 0.00 69 1019.5
20260902232234 89 330 1.7 1.7 0.00 0.00 0.00 65 1019.3
20260902231728 90 337 0.9 1.7 0.00 0.00 0.00 62 1019.3
20260902231223 90 341 0.9 1.7 0.00 0.00 0.00 62 1019.2
20260902230718 91 336 1.7 1.7 0.00 0.00 0.00 61 1019.2
20260902230217 92 349 0.9 0.9 0.00 0.00 0.00 57 1019.4
20260902225713 94 348 0.9 0.9 0.00 0.00 0.00 55 1019.3
20260902225212 97 347 0.0 0.9 0.00 0.00 0.00 50 1019.3
20260902224711 98 152 0.0 0.9 0.00 0.00 0.00 51 1019.3
20260902224207 98 265 0.0 0.9 0.00 0.00 0.00 50 1019.4
20260902223703 98 342 0.0 0.9 0.00 0.00 0.00 50 1019.3
20260902223202 99 178 0.0 0.0 0.00 0.00 0.00 50 1019.6
20260902222701 98 331 0.0 0.9 0.00 0.00 0.00 52 1019.3
20260902222200 99 137 0.0 0.9 0.00 0.00 0.00 52 1019.5
20260902221655 99 212 0.0 0.0 0.00 0.00 0.00 50 1019.4
20260902221149 95 109 0.9 1.7 0.00 0.00 0.00 57 1019.6
20260902220645 96 136 0.9 0.9 0.00 0.00 0.00 54 1019.5
20260902220145 96 144 0.0 0.0 0.00 0.00 0.00 56 1019.6
20260902215641 95 113 0.9 0.9 0.00 0.00 0.00 61 1019.6
20260902215136 96 127 0.0 0.9 0.00 0.00 0.00 60 1019.6
20260902214631 96 112 0.9 0.9 0.00 0.00 0.00 56 1019.6
20260902214130 97 86 0.9 1.7 0.00 0.00 0.00 48 1019.5
20260902213625 99 123 0.9 0.9 0.00 0.00 0.00 54 1019.6
20260902213124 98 144 0.0 0.0 0.00 0.00 0.00 54 1019.6
20260902212620 97 154 0.0 0.9 0.00 0.00 0.00 48 1019.7
20260902212116 97 139 0.9 0.9 0.00 0.00 0.00 52 1019.7
20260902211612 96 113 0.9 1.7 0.00 0.00 0.00 51 1019.7
20260902211108 96 115 0.9 0.9 0.00 0.00 0.00 56 1019.5
20260902210607 96 119 0.9 1.7 0.00 0.00 0.00 55 1019.5
20260902210108 97 127 0.9 0.9 0.00 0.00 0.00 49 1019.8
20260902205606 100 150 0.0 0.0 0.00 0.00 0.00 48 1019.7
20260902205102 100 150 0.0 0.0 0.00 0.00 0.00 51 1019.8
20260902204557 99 135 0.0 0.0 0.00 0.00 0.00 49 1019.7
20260902204057 97 134 0.0 0.9 0.00 0.00 0.00 50 1019.9
20260902203553 96 120 0.9 0.9 0.00 0.00 0.00 54 1019.9
20260902203051 95 125 0.9 1.7 0.00 0.00 0.00 58 1019.9
20260902202548 97 142 0.0 0.9 0.00 0.00 0.00 50 1019.9
20260902202044 96 101 0.9 1.7 0.00 0.00 0.00 49 1020.0
20260902201539 96 110 0.9 0.9 0.00 0.00 0.00 52 1020.0
20260902201038 98 135 0.0 0.0 0.00 0.00 0.00 47 1020.2
20260902200534 96 122 0.9 0.9 0.00 0.00 0.00 48 1020.0
20260902200030 98 156 0.0 0.9 0.00 0.00 0.00 47 1020.2
20260902195526 95 156 0.9 1.7 0.00 0.00 0.00 53 1020.2
20260902195024 96 160 0.9 1.7 0.00 0.00 0.00 48 1020.4
20260902194524 96 136 0.0 0.9 0.00 0.00 0.00 54 1020.3
20260902194019 96 132 0.9 1.7 0.00 0.00 0.00 52 1020.3
20260902193515 95 121 0.9 1.7 0.00 0.00 0.00 57 1020.5
20260902193015 94 106 1.7 2.6 0.00 0.00 0.00 51 1020.7
20260902192513 95 142 0.0 0.9 0.00 0.00 0.00 54 1020.6
20260902192012 95 131 0.0 0.9 0.00 0.00 0.00 55 1020.9
20260902191508 94 144 0.9 0.9 0.00 0.00 0.00 55 1020.7
20260902191002 94 146 0.9 0.9 0.00 0.00 0.00 55 1020.8
20260902190458 93 125 0.9 0.9 0.00 0.00 0.00 55 1021.0
20260902185953 93 117 0.9 0.9 0.00 0.00 0.00 61 1021.0
20260902185449 93 116 1.7 2.6 0.00 0.00 0.00 55 1021.0
20260902184944 92 136 0.9 1.7 0.00 0.00 0.00 61 1021.1
20260902184439 92 137 1.7 1.7 0.00 0.00 0.00 60 1021.2
20260902183935 92 128 0.9 2.6 0.00 0.00 0.00 65 1021.5
20260902183431 92 133 0.9 1.7 0.00 0.00 0.00 65 1021.2
20260902182927 91 122 1.7 1.7 0.00 0.00 0.00 63 1021.2
20260902182423 91 125 0.9 1.7 0.00 0.00 0.00 62 1021.5
20260902181920 91 145 0.9 1.7 0.00 0.00 0.00 65 1021.3
20260902181415 91 137 1.7 2.6 0.00 0.00 0.00 64 1021.3
20260902180914 91 137 1.7 1.7 0.00 0.00 0.00 64 1021.5
20260902180410 91 122 1.7 2.6 0.00 0.00 0.00 63 1021.5
20260902175905 91 135 1.7 1.7 0.00 0.00 0.00 65 1021.7
20260902175400 90 131 0.9 1.7 0.00 0.00 0.00 66 1021.7
20260902174856 90 134 0.9 1.7 0.00 0.00 0.00 65 1021.8
20260902174353 90 132 1.7 1.7 0.00 0.00 0.00 66 1021.8
20260902173848 89 110 1.7 1.7 0.00 0.00 0.00 67 1022.0
20260902173348 90 128 1.7 1.7 0.00 0.00 0.00 70 1022.1
20260902172843 90 120 1.7 1.7 0.00 0.00 0.00 65 1022.0
20260902172342 89 126 1.7 2.6 0.00 0.00 0.00 66 1022.2
20260902171837 89 131 1.7 1.7 0.00 0.00 0.00 71 1022.5
20260902171332 89 123 1.7 2.6 0.00 0.00 0.00 71 1022.5
20260902170829 89 126 0.9 1.7 0.00 0.00 0.00 67 1022.6
20260902170325 89 125 0.9 1.7 0.00 0.00 0.00 70 1022.5
20260902165820 88 119 0.9 1.7 0.00 0.00 0.00 71 1022.5
20260902165319 88 112 1.7 1.7 0.00 0.00 0.00 74 1022.6
20260902164814 88 121 1.7 2.6 0.00 0.00 0.00 69 1022.9
20260902164309 88 107 2.6 2.6 0.00 0.00 0.00 71 1022.9
20260902163803 87 116 0.9 2.6 0.00 0.00 0.00 74 1023.1
20260902163302 87 104 1.7 2.6 0.00 0.00 0.00 72 1023.0
20260902162756 86 119 2.6 2.6 0.00 0.00 0.00 74 1023.1
20260902162251 86 114 2.6 2.6 0.00 0.00 0.00 78 1023.1
20260902161745 86 113 1.7 3.5 0.00 0.00 0.00 76 1023.2
20260902161241 86 113 1.7 2.6 0.00 0.00 0.00 78 1023.3
20260902160737 86 113 1.7 3.5 0.00 0.00 0.00 77 1023.3
20260902160232 86 108 1.7 2.6 0.00 0.00 0.00 81 1023.3
20260902155730 85 107 2.6 3.5 0.00 0.00 0.00 78 1023.4
20260902155229 85 110 2.6 3.5 0.00 0.00 0.00 80 1023.3
20260902154724 85 105 2.6 2.6 0.00 0.00 0.00 78 1023.3
20260902154224 85 102 2.6 2.6 0.00 0.00 0.00 80 1023.4
20260902153723 85 112 2.6 2.6 0.00 0.00 0.00 80 1023.4
20260902153218 85 106 2.6 2.6 0.00 0.00 0.00 80 1023.7
20260902152714 85 105 2.6 2.6 0.00 0.00 0.00 79 1023.4
20260902152209 85 113 2.6 3.5 0.00 0.00 0.00 78 1023.5
20260902151705 84 115 2.6 2.6 0.00 0.00 0.00 79 1023.5
20260902151200 85 120 2.6 3.5 0.00 0.00 0.00 82 1023.5
20260902150655 84 106 1.7 2.6 0.00 0.00 0.00 81 1023.4
20260902150151 84 113 1.7 2.6 0.00 0.00 0.00 79 1023.6
20260902145650 84 119 2.6 2.6 0.00 0.00 0.00 82 1023.6
20260902145150 84 109 1.7 2.6 0.00 0.00 0.00 79 1023.5
20260902144646 83 117 1.7 2.6 0.00 0.00 0.00 80 1023.5
20260902144141 83 122 1.7 3.5 0.00 0.00 0.00 81 1023.6
20260902143636 83 120 1.7 2.6 0.00 0.00 0.00 83 1023.3
20260902143131 83 110 1.7 2.6 0.00 0.00 0.00 84 1023.4
20260902142627 83 127 1.7 2.6 0.00 0.00 0.00 82 1023.5
20260902142123 82 113 1.7 2.6 0.00 0.00 0.00 84 1023.3
20260902141622 82 117 1.7 2.6 0.00 0.00 0.00 85 1023.1
20260902141118 82 124 1.7 2.6 0.00 0.00 0.00 85 1023.2
20260902140613 82 108 1.7 2.6 0.00 0.00 0.00 86 1023.3
20260902140108 82 118 1.7 2.6 0.00 0.00 0.00 85 1023.3
20260902135607 82 113 1.7 1.7 0.00 0.00 0.00 86 1023.3
20260902135103 82 105 1.7 2.6 0.00 0.00 0.00 85 1023.6
20260902134558 81 114 1.7 3.5 0.00 0.00 0.00 85 1023.4
20260902134058 82 131 0.9 1.7 0.00 0.00 0.00 86 1023.3
20260902133553 81 111 1.7 1.7 0.00 0.00 0.00 85 1023.4
20260902133052 82 119 0.9 1.7 0.00 0.00 0.00 85 1023.5
20260902132548 82 116 0.9 1.7 0.00 0.00 0.00 84 1023.4
20260902132044 82 130 0.9 1.7 0.00 0.00 0.00 85 1023.4
20260902131539 82 150 0.0 1.7 0.00 0.00 0.00 83 1023.7
20260902131034 83 147 0.0 0.9 0.00 0.00 0.00 81 1023.5
20260902130530 82 135 0.9 1.7 0.00 0.00 0.00 82 1023.6
20260902130025 82 131 0.9 0.9 0.00 0.00 0.00 82 1023.3
20260902125521 83 132 0.9 0.9 0.00 0.00 0.00 80 1023.1
20260902125016 82 152 0.0 0.9 0.00 0.00 0.00 85 1023.1
20260902124513 80 129 0.0 0.9 0.00 0.00 0.00 91 1023.1
20260902124012 79 119 0.0 0.0 0.00 0.00 0.00 93 1023.4
20260902123508 77 113 0.0 0.0 0.00 0.00 0.00 94 1023.2
20260902123008 76 103 0.0 0.9 0.00 0.00 0.00 95 1023.2
20260902122502 76 7 0.9 0.9 0.00 0.00 0.00 95 1023.3
20260902121958 76 344 0.9 1.7 0.00 0.00 0.00 95 1023.3
20260902121453 75 339 0.9 0.9 0.00 0.00 0.00 96 1023.0
20260902120948 75 345 0.9 1.7 0.00 0.00 0.00 96 1023.1
20260902120444 74 344 0.9 1.7 0.00 0.00 0.00 97 1022.9